TimeMDT,TemperatureF,Dew PointF,Humidity,Sea Level PressureIn,VisibilityMPH,Wind Direction,Wind SpeedMPH,Gust SpeedMPH,PrecipitationIn,Events,Conditions,WindDirDegrees,DateUTC
12:53 AM,57.0,34.0,42,29.95,10.0,WSW,8.1,-,N/A,,Clear,240,2013-05-13 06:53:00
1:53 AM,55.9,34.0,44,29.94,10.0,WSW,9.2,-,N/A,,Clear,240,2013-05-13 07:53:00
2:53 AM,55.0,32.0,42,29.94,10.0,WSW,12.7,-,N/A,,Clear,240,2013-05-13 08:53:00
3:53 AM,54.0,33.1,45,29.94,10.0,WSW,11.5,-,N/A,,Clear,250,2013-05-13 09:53:00
4:53 AM,52.0,33.1,49,29.95,10.0,WSW,11.5,-,N/A,,Clear,250,2013-05-13 10:53:00
5:53 AM,54.0,33.1,45,29.96,10.0,WSW,11.5,-,N/A,,Clear,250,2013-05-13 11:53:00
6:53 AM,57.0,34.0,42,29.98,10.0,West,9.2,-,N/A,,Clear,260,2013-05-13 12:53:00
7:53 AM,64.0,36.0,35,29.99,10.0,SW,9.2,-,N/A,,Clear,230,2013-05-13 13:53:00
8:53 AM,71.1,34.0,26,29.99,10.0,SW,15.0,-,N/A,,Clear,220,2013-05-13 14:53:00
9:53 AM,75.0,36.0,24,29.97,10.0,SW,12.7,20.7,N/A,,Clear,220,2013-05-13 15:53:00
10:53 AM,79.0,35.1,20,29.97,10.0,SSW,13.8,27.6,N/A,,Clear,210,2013-05-13 16:53:00
11:53 AM,81.0,34.0,18,29.95,10.0,SSW,8.1,-,N/A,,Scattered Clouds,200,2013-05-13 17:53:00
12:53 PM,84.0,30.9,15,29.92,10.0,Variable,6.9,17.3,N/A,,Scattered Clouds,0,2013-05-13 18:53:00
2:53 PM,84.0,30.9,15,29.88,10.0,SSW,12.7,17.3,N/A,,Partly Cloudy,210,2013-05-13 20:53:00
3:53 PM,84.9,30.0,14,29.85,10.0,WSW,6.9,21.9,N/A,,Partly Cloudy,240,2013-05-13 21:53:00
4:53 PM,84.9,28.9,13,29.83,10.0,West,16.1,20.7,N/A,,Clear,270,2013-05-13 22:53:00
5:53 PM,84.2,26.6,12,30.00,10.0,WNW,10.4,-,N/A,,Clear,300,2013-05-13 23:53:00
6:53 PM,82.9,30.9,15,29.78,10.0,SSW,6.9,-,N/A,,Clear,200,2013-05-14 00:53:00
7:53 PM,75.2,37.4,25,29.97,10.0,West,4.6,-,N/A,,Clear,260,2013-05-14 01:53:00
8:53 PM,64.9,36.0,34,29.79,10.0,WSW,6.9,-,N/A,,Clear,240,2013-05-14 02:53:00
9:53 PM,63.0,33.1,33,29.78,10.0,SW,9.2,-,N/A,,Clear,230,2013-05-14 03:53:00
10:53 PM,59.0,32.0,36,29.78,10.0,SW,5.8,-,N/A,,Clear,220,2013-05-14 04:53:00
11:53 PM,62.1,30.0,30,29.75,10.0,SW,13.8,-,N/A,,Clear,220,2013-05-14 05:53:00